Location: Observatory
(52.1446°N, 0.4624°W)
Time: 05:22:58
(UTC+00:00)

ISS - Pass Details

Date: 11 December 2019
Orbit: 411 x 421 km, 51.6° (Epoch: 15 December)

Event Time Altitude Azimuth Distance (km) Brightness Sun altitude
Rises 16:33:23 0° 282° (WNW) 2,357 0.9 -6.4°
Reaches altitude 10° 16:35:39 10° 270° (W) 1,493 0.1 -6.7°
Maximum altitude 16:38:33 27° 210° (SSW) 829 -1.5 -7.1°
Drops below altitude 10° 16:41:27 10° 150° (SSE) 1,492 -1.0 -7.5°
Sets 16:43:43 0° 138° (SE) 2,354 -0.1 -7.8°
